Regional Weather Roundup
Issued by NWS

Home | Current Version | Previous Version | Graphics & Text | Print | Product List | Glossary Off
Versions: 1 2 3 4 5 6 7 8 9 10 11 12 13 14 15 16 17 18 19 20 21 22 23 24 25 26 27 28 29 30 31 32 33 34 35 36 37 38 39 40 41 42 43 44 45 46 47 48 49 50

000
ASUS43 KTOP 290208
RWRKS

WEATHER ROUNDUP FOR KANSAS
NATIONAL WEATHER SERVICE GOODLAND KS
900 PM CDT FRI AUG 28 2015

NOTE:  "FAIR" INDICATES FEW OR NO CLOUDS BELOW 12,000 FEET WITH NO
SIGNIFICANT WEATHER AND/OR OBSTRUCTIONS TO VISIBILITY.

KSZ001>006-013>018-027>032-041>047-290300-
NORTHWEST KANSAS

CITY           SKY/WX    TMP DP  RH WIND       PRES   REMARKS
GOODLAND       CLEAR     72  49  44 NE5       30.09R
HAYS           CLEAR     79  59  50 NE13      29.99R
HILL CITY      CLEAR     75  62  64 NE9       30.02R
RUSSELL        CLEAR     76  64  66 N10       29.97R
$$

KSZ061>065-074>080-084>089-290300-
SOUTHWEST KANSAS

CITY           SKY/WX    TMP DP  RH WIND       PRES   REMARKS
DODGE CITY     CLEAR     74  59  59 NE7       30.00R
ELKHART          N/A     79  57  46 N1          N/A
GARDEN CITY    CLEAR     80  56  43 NE10      30.01R
GREAT BEND     CLEAR     79  63  57 NE10      29.97R
LIBERAL        PTCLDY    81  55  41 S7        30.02R
PRATT          CLEAR     79  61  53 CALM      29.97R
$$

KSZ066>073-081>083-090>101-290300-
SOUTHEAST KANSAS

CITY           SKY/WX    TMP DP  RH WIND       PRES   REMARKS
CHANUTE        MOCLDY    73  69  87 S10       29.92R
COFFEYVILLE    PTCLDY    72  69  90 S6        29.93R
HUTCHINSON     CLEAR     79  64  60 NE5       29.95R
MEDICINE LODGE   N/A     84  65  52 S5        29.91R
NEWTON         PTCLDY    72  57  60 S6        29.96R
PARSONS        LGT RAIN  73  70  90 S5        29.94R
WICHITA INTL   LGT RAIN  77  65  66 E9        29.94R
WICHITA JABRA  PTCLDY    69  66  90 CALM      29.94S
WICHITA MCCONL PTCLDY    73  62  68 E3        29.93F
WINFIELD       CLEAR     75  69  81 SE9       29.93R
$$

KSZ007>012-019>026-033>040-048>060-102>105-290300-
NORTHEAST KANSAS

CITY           SKY/WX    TMP DP  RH WIND       PRES   REMARKS
CONCORDIA      PTCLDY    71  63  75 N8        29.97R
EMPORIA        CLOUDY    73  68  84 S9        29.91R
LAWRENCE       CLOUDY    73  67  81 S6        29.92R
MANHATTAN      CLOUDY    76  69  79 N6        29.92R
MARYSVILLE     CLEAR    N/A N/A N/A NW5       29.94R
OLATHE IND     CLOUDY    72  67  84 S10       29.94R
OLATHE EXE     CLOUDY    70  67  90 S7        29.93R
SALINA         PTCLDY    78  67  68 N9        29.95R
TOPEKA BILLARD PTCLDY    74  68  81 S9        29.89R
TOPEKA FORBES  PTCLDY    74  67  78 S7        29.90R
$$



USA.gov is the U.S. government's official web portal to all federal, state and local government web resources and services.